Regional Weather Roundup
Issued by NWS

Home | Current Version | Previous Version | Graphics & Text | Print | Product List | Glossary On
Versions: 1 2 3 4 5 6 7 8 9 10 11 12 13 14 15 16 17 18 19 20 21 22 23 24 25 26 27 28 29 30 31 32 33 34 35 36 37 38 39 40 41 42 43 44 45 46 47 48 49 50
000
ASUS43 KBIS 070310
RWRND

NORTH DAKOTA REGIONAL WEATHER ROUNDUP
NATIONAL WEATHER SERVICE BISMARCK ND
1000 PM CDT MON JUL 06 2015

NOTE: "FAIR" INDICATES FEW OR NO CLOUDS BELOW 12,000 FEET WITH NO
SIGNIFICANT WEATHER AND/OR OBSTRUCTIONS TO VISIBILITY.


NDZ001>003-009>011-017-070400-
NORTHWEST NORTH DAKOTA

CITY           SKY/WX    TMP DP  RH WIND       PRES   REMARKS
WILLISTON      CLEAR     63  47  55 E7        30.16S
MINOT          CLEAR     56  50  80 CALM      30.15S
MINOT AFB      CLEAR     62  49  62 CALM      30.14S
$$

NDZ018>021-031>035-040>046-070400-
SOUTHWEST NORTH DAKOTA

CITY           SKY/WX    TMP DP  RH WIND       PRES   REMARKS
BISMARCK       CLEAR     61  51  70 NE6       30.16R
DICKINSON      CLEAR     57  52  83 NE6       30.16R HAZE
GARRISON         N/A     59  50  72 NE3       30.16R
HETTINGER ARPT CLEAR     57  53  86 NE8       30.17S FOG
$$

NDZ004>008-012>016-024-026-027-054-070400-
NORTHEAST NORTH DAKOTA

CITY           SKY/WX    TMP DP  RH WIND       PRES   REMARKS
GRAND FORKS    CLEAR     52  48  86 NW6       30.12S
GRND FRKS AFB  CLEAR     53  47  79 N5        30.14R
DEVILS LAKE    CLEAR     55  46  71 NE6       30.13S
$$

NDZ022-023-025-028>030-036>039-047>053-070400-
SOUTHEAST NORTH DAKOTA

CITY           SKY/WX    TMP DP  RH WIND       PRES   REMARKS
FARGO          CLEAR     58  46  64 N8        30.12R
JAMESTOWN      CLEAR     55  49  80 N6        30.13R
$$



USA.gov is the U.S. government's official web portal to all federal, state and local government web resources and services.